Retour au catalogue

BREEZE-M R/B

ActifHEO
NORAD 28527·ROCKET BODY·🇷🇺 Russia

Lancé Feb 3, 2005 depuis Baikonur Cosmodrome

Loading…

Prochains Passages (prochaines 24 heures)

TLE

FraisSource: Space-Track

Époque: Sep 14, 2026, 09:30 UTC

1 28527U 05003B   26257.39601868 -.00000124  00000-0  00000-0 0  9993
2 28527  20.3401 317.0203 5365536 269.8839  55.0261  1.93171047152482

Suivez BREEZE-M R/B en temps réel avec AllMySat

Download on the App Store